Preview of NWS' New Version of Forecast
This preview is not operational and should not be used for support decisions.

Regional Weather Roundup (RWR)

Issued by National Weather Service (NWS)

                            
000
ASCA42 TJSJ 171710
RWRPR 
PUERTO RICO/U.S. VIRGIN ISLANDS HOURLY WEATHER ROUNDUP
NATIONAL WEATHER SERVICE SAN JUAN PR
100 PM AST FRI MAY 17 2019

PRZ001>002-007>008-010-171800-
PUERTO RICO
  
CITY           SKY/WX    TMP DP  RH WIND       PRES   REMARKS
SAN JUAN LMM   MOSUNNY   88  72  58 NE18      29.98F HX  94           
AGUADILLA      MOSUNNY   84  75  74 NE12      30.02F HX  92           
CEIBA          SUNNY     90  72  55 E14       30.01F HX  96           
$$

VIZ001>002-171800-
U.S. VIRGIN ISLANDS
  
CITY           SKY/WX    TMP DP  RH WIND       PRES   REMARKS
CHARLOTTE AMA  SUNNY     84  72  65 SE15      29.99F                  
CHRISTIANSTED  MOSUNNY   84  73  70 SE10      30.01F HX  91           
$$

HOURLY WEATHER ROUNDUP FOR THE NEWS MEDIA
  
CITY           SKY/WX    TMP DP  RH WIND       PRES   REMARKS
ORLANDO        FAIR      85  57  38 VRB3G18   30.06F                  
NEW YORK       CLOUDY    66  58  75 SW8       29.78F                  
NEWARK         LGT RAIN  73  56  54 SW15G23   29.76R                  
CHICAGO        LGT RAIN  50  40  68 N12       29.96R                  
HARTFORD       FAIR      69  55  60 SW17G28   29.76F                  
BOSTON         LGT RAIN  56  54  93 SE5       29.76F                  
DALLAS         PTSUNNY   80  66  62 S13       29.86                   
PHILADELPHIA   PTSUNNY   79  54  41 SW14      29.78F                  
LOS ANGELES    MOSUNNY   68  40  35 N5        30.00F                  
WASHINGTON DC  PTSUNNY   75  59  57 CALM      29.81F